Location: Doughton Park
(36.4224°N, 81.1835°W)
Time: 12:46:33
(UTC-04:00)

Amateur Radio Satellites - All Passes

Search period start: 25 July 2017 12:16
Search period end: 26 July 2017 12:16
Location: Doughton Park, 36.4224°N, 81.1835°W

Satellite Date Start Highest point End Downlink Frequencies (MHz)
Time Altitude Azimuth
DELFI C3 25 Jul 12:19:21 12:20:58 12° 293° (WNW) 12:22:33 145.870
AIST 2D 25 Jul 12:26:27 12:29:41 36° 262° (W) 12:32:56 435.315
Oscar 19 25 Jul 12:44:18 12:46:16 12° 62° (ENE) 12:48:13 437.125/150
LO-87 25 Jul 12:44:30 12:48:04 62° 284° (WNW) 12:51:35 145.935 - 145.965
SPROUT 25 Jul 12:46:14 12:48:31 14° 93° (E) 12:50:46 437.525
ESTCUBE 1 25 Jul 12:47:17 12:51:48 67° 102° (ESE) 12:56:17 437.505/2401.250
BEESAT 3 25 Jul 12:47:37 12:51:21 41° 114° (ESE) 12:55:08 437.485
NO-84 25 Jul 12:55:14 12:56:48 13° 330° (NNW) 12:58:26 435.350 FM
Gurwin Techsat 1B 25 Jul 13:11:27 13:14:24 15° 63° (ENE) 13:17:21 435.225
DUCHIFAT 1 25 Jul 13:13:33 13:17:30 37° 262° (W) 13:21:27 145.980
POLYITAN 1 25 Jul 13:16:51 13:20:30 27° 263° (W) 13:24:11 437.675
PCSat 25 Jul 13:25:33 13:26:45 11° 43° (NE) 13:27:58 145.827
BEESAT 2 25 Jul 13:28:08 13:31:48 36° 114° (ESE) 13:35:31 435.950
QB50P2 25 Jul 13:30:48 13:33:42 18° 266° (W) 13:36:37 145.880/145.840
VELOX 1 25 Jul 13:31:53 13:36:07 41° 99° (E) 13:40:19 145.980
DX 1 25 Jul 13:38:07 13:40:14 13° 93° (E) 13:42:21 434.975-435.025
BUGSAT 1 25 Jul 13:40:43 13:44:56 68° 259° (W) 13:49:09 437.445
NANOSAT C BR1 25 Jul 13:42:52 13:45:29 16° 266° (W) 13:48:07 145.865
EO-79 25 Jul 13:43:24 13:45:43 14° 267° (W) 13:48:02 145.935-145.965
50 SAT 25 Jul 13:45:14 13:47:52 20° 96° (E) 13:50:28 437.505
AO-85 25 Jul 13:48:32 13:52:17 37° 304° (NW) 13:55:57 145.980
RS-15 25 Jul 14:12:36 14:17:19 13° 95° (E) 14:22:02 29.354- 29.394
UKube-1 25 Jul 14:18:46 14:22:24 25° 97° (E) 14:25:59 .
Oscar 19 25 Jul 14:19:47 14:24:53 75° 257° (WSW) 14:30:02 437.125/150
SPROUT 25 Jul 14:20:34 14:24:34 41° 287° (WNW) 14:28:32 437.525
BEESAT 3 25 Jul 14:26:28 14:29:05 17° 311° (NW) 14:31:44 437.485
ESTCUBE 1 25 Jul 14:26:54 14:27:59 11° 296° (WNW) 14:29:03 437.505/2401.250
AO-7 25 Jul 14:34:18 14:40:40 25° 57° (ENE) 14:47:03 .
ITAMSAT 1 25 Jul 14:37:20 14:38:31 11° 60° (ENE) 14:39:42 435.822/435.867
Gurwin Techsat 1B 25 Jul 14:48:30 14:53:45 64° 259° (WSW) 14:59:03 435.225
PCSat 25 Jul 15:05:42 15:11:08 71° 62° (ENE) 15:16:31 145.827
O/OREOS (USA 219) 25 Jul 15:06:28 15:10:03 24° 102° (ESE) 15:13:40 437.305
BEESAT 2 25 Jul 15:06:52 15:09:40 18° 310° (NW) 15:12:30 435.950
SO-50 25 Jul 15:09:16 15:12:50 22° 50° (NE) 15:16:24 436.795
VELOX 1 25 Jul 15:09:25 15:12:11 16° 294° (WNW) 15:14:56 145.980
DX 1 25 Jul 15:12:25 15:16:38 46° 287° (WNW) 15:20:48 434.975-435.025
50 SAT 25 Jul 15:18:02 15:20:25 18° 290° (WNW) 15:22:48 437.505
UKube-1 25 Jul 15:54:49 15:58:17 24° 291° (WNW) 16:01:45 .
BEESAT 25 Jul 16:00:12 16:04:30 33° 98° (E) 16:08:45 436.000
ITAMSAT 1 25 Jul 16:11:57 16:17:11 87° 256° (WSW) 16:22:27 435.822/435.867
ITUPSAT 1 25 Jul 16:13:30 16:18:04 45° 99° (E) 16:22:36 437.325
RS-15 25 Jul 16:15:26 16:27:25 70° 113° (ESE) 16:39:39 29.354- 29.394
AO-7 25 Jul 16:24:20 16:32:39 71° 255° (WSW) 16:41:02 .
O/OREOS (USA 219) 25 Jul 16:45:31 16:49:19 27° 297° (WNW) 16:53:09 437.305
SO-50 25 Jul 16:49:10 16:53:23 38° 246° (WSW) 16:57:37 436.795
PCSat 25 Jul 16:51:25 16:53:50 13° 257° (WSW) 16:56:15 145.827
MOZHAYETS 4 25 Jul 16:57:01 17:01:34 76° 285° (WNW) 17:06:07
CUBESAT XI-V 25 Jul 17:32:47 17:37:18 47° 99° (E) 17:41:49 437.345
KKS-1 25 Jul 17:35:19 17:38:58 25° 96° (E) 17:42:37 437.445
BEESAT 25 Jul 17:38:22 17:42:02 23° 293° (WNW) 17:45:42 436.000
NO-84 25 Jul 17:51:23 17:54:03 18° 34° (NE) 17:56:50 435.350 FM
ITUPSAT 1 25 Jul 17:52:28 17:55:30 17° 295° (WNW) 17:58:33 437.325
KAITUO 1B 25 Jul 17:53:09 17:54:15 11° 67° (ENE) 17:55:20 145.475/437.950
LilacSat-2 25 Jul 17:54:37 17:57:08 17° 70° (ENE) 17:59:40 437.200
CUTE-I 25 Jul 18:03:46 18:08:11 27° 67° (ENE) 18:12:36 437.470
STARS 25 Jul 18:03:58 18:07:16 20° 95° (E) 18:10:31 437.465
YUBILEINY 25 Jul 18:05:17 18:11:05 20° 80° (E) 18:16:53 435.215
XW-2F 25 Jul 18:07:40 18:10:36 22° 71° (ENE) 18:13:30 145.980 - 146.000
DOVE 4 25 Jul 18:14:54 18:19:43 88° 256° (WSW) 18:24:52 437.250
AO-7 25 Jul 18:25:27 18:26:38 10° 271° (W) 18:27:49 .
RS-15 25 Jul 18:29:46 18:40:50 38° 317° (NW) 18:52:04 29.354- 29.394
XW-2D 25 Jul 18:35:55 18:39:36 58° 75° (ENE) 18:43:17 145.860 - 145.880
XW-2B 25 Jul 18:45:56 18:49:40 77° 77° (ENE) 18:53:25 145.730 - 145.750
HO-68 25 Jul 18:55:28 19:01:40 33° 64° (ENE) 19:07:51 435.675
XW-2C 25 Jul 19:03:22 19:07:04 59° 260° (W) 19:10:47 145.795 - 145.815
NUDT-PHONESAT 25 Jul 19:08:54 19:12:33 69° 258° (WSW) 19:16:14 437.300
CUBESAT XI-V 25 Jul 19:11:27 19:14:14 16° 294° (WNW) 19:17:02 437.345
KKS-1 25 Jul 19:11:42 19:15:25 26° 291° (WNW) 19:19:08 437.445
CUBEBUG 2 25 Jul 19:22:24 19:25:32 18° 68° (ENE) 19:28:37 437.445
KAITUO 1B 25 Jul 19:24:21 19:27:50 40° 261° (W) 19:31:19 145.475/437.950
NO-84 25 Jul 19:27:53 19:31:50 67° 229° (SW) 19:36:01 435.350 FM
LilacSat-2 25 Jul 19:28:01 19:31:12 26° 263° (W) 19:34:24 437.200
CUTE 1.7 + AOD 2 25 Jul 19:35:52 19:39:51 44° 74° (ENE) 19:43:50 437.475
STARS 25 Jul 19:39:44 19:43:36 30° 290° (WNW) 19:47:26 437.465
XW-2F 25 Jul 19:41:51 19:44:37 20° 265° (W) 19:47:24 145.980 - 146.000
CUTE-I 25 Jul 19:43:09 19:48:01 35° 262° (W) 19:52:55 437.470
SEEDS 25 Jul 19:47:09 19:50:56 36° 73° (ENE) 19:54:45 437.485
YUBILEINY 25 Jul 19:58:00 20:06:49 76° 277° (W) 20:15:42 435.215
ISS 25 Jul 20:12:11 20:14:40 20° 130° (SE) 20:17:09 437.550
XW-2A 25 Jul 20:17:30 20:20:53 87° 249° (WSW) 20:24:17 145.665 - 145.685
UWE-3 25 Jul 20:17:52 20:22:09 40° 73° (ENE) 20:26:22 435.000/436.395/437.385
Tancredo 1 25 Jul 20:25:32 20:28:27 76° 320° (NW) 20:31:22 437.200
AAUSAT CUBESAT 2 25 Jul 20:28:41 20:32:37 49° 74° (ENE) 20:36:37 437.432
ZACube-1 25 Jul 20:30:40 20:34:33 30° 71° (ENE) 20:38:21 437.345
STRAND 1 25 Jul 20:35:06 20:40:06 53° 100° (E) 20:45:03 437.568
HO-68 25 Jul 20:42:21 20:49:08 44° 260° (W) 20:55:56 435.675
RS-15 25 Jul 20:51:33 20:58:35 16° 350° (N) 21:05:34 29.354- 29.394
nSIGHT-1 25 Jul 20:52:57 20:56:08 65° 137° (SE) 20:59:20 .
Oscar 11 25 Jul 20:55:32 20:59:29 37° 72° (ENE) 21:03:26 .
CUBEBUG 2 25 Jul 20:57:21 21:01:48 41° 262° (W) 21:06:11 437.445
BEESAT 3 25 Jul 21:07:56 21:09:48 13° 46° (NE) 21:11:40 437.485
AO-73 25 Jul 21:09:50 21:14:16 77° 77° (ENE) 21:18:37 145.935
CUTE 1.7 + AOD 2 25 Jul 21:14:02 21:15:53 13° 268° (W) 21:17:43 437.475
SEEDS 25 Jul 21:24:18 21:26:43 15° 267° (W) 21:29:10 437.485
DELFI C3 25 Jul 21:26:23 21:29:06 18° 69° (ENE) 21:31:50 145.870
EO-88 25 Jul 21:43:43 21:46:05 17° 69° (ENE) 21:48:26 145.990 - 145.960
ISS 25 Jul 21:48:01 21:50:59 32° 325° (NW) 21:53:58 437.550
BEESAT 2 25 Jul 21:49:21 21:51:07 12° 46° (NE) 21:52:52 435.950
UWE-3 25 Jul 21:55:48 21:58:42 16° 267° (W) 22:01:34 435.000/436.395/437.385
YUBILEINY 25 Jul 22:01:22 22:05:09 13° 298° (WNW) 22:08:58 435.215
FO-29 25 Jul 22:03:26 22:09:08 27° 92° (E) 22:14:17 435.910
Tancredo 1 25 Jul 22:03:35 22:04:17 11° 336° (NNW) 22:04:59 437.200
AAUSAT CUBESAT 2 25 Jul 22:07:24 22:08:20 11° 269° (W) 22:09:16 437.432
ZACube-1 25 Jul 22:07:24 22:10:47 21° 265° (W) 22:14:08 437.345
STRAND 1 25 Jul 22:15:39 22:18:48 17° 296° (WNW) 22:21:56 437.568
AO-85 25 Jul 22:20:49 22:25:05 78° 60° (ENE) 22:29:41 145.980
TIGRISAT 25 Jul 22:22:56 22:25:10 14° 92° (E) 22:27:24 435.000
nSIGHT-1 25 Jul 22:30:46 22:32:49 16° 333° (NNW) 22:34:53 .
Oscar 11 25 Jul 22:33:05 22:35:43 16° 267° (W) 22:38:22 .
BEESAT 3 25 Jul 22:43:48 22:47:44 57° 244° (WSW) 22:51:33 437.485
PRISM 25 Jul 22:57:37 23:01:21 31° 98° (E) 23:05:04 437.425
DELFI C3 25 Jul 23:00:16 23:03:38 27° 264° (W) 23:07:03 145.870
RS-15 25 Jul 23:09:04 23:17:57 22° 27° (NNE) 23:26:33 29.354- 29.394
UNISAT 6 25 Jul 23:13:46 23:18:03 64° 102° (ESE) 23:22:15 437.425
JUGNU 25 Jul 23:15:10 23:17:01 11° 168° (SSE) 23:18:52 437.505
EO-88 25 Jul 23:16:30 23:19:32 25° 264° (W) 23:22:35 145.990 - 145.960
LO-87 25 Jul 23:17:54 23:21:07 31° 73° (ENE) 23:24:23 145.935 - 145.965
BEESAT 2 25 Jul 23:25:15 23:29:16 62° 243° (WSW) 23:33:12 435.950
ESTCUBE 1 25 Jul 23:44:08 23:48:21 44° 73° (ENE) 23:52:36 437.505/2401.250
FO-29 25 Jul 23:47:47 23:54:24 45° 291° (WNW) 00:00:16 435.910
M-CUBED/EXP-1 PRIME 25 Jul 23:49:18 23:53:49 50° 104° (ESE) 23:58:19 437.505
AIST 2D 25 Jul 23:54:24 23:56:46 17° 95° (E) 23:59:07 435.315
TIGRISAT 25 Jul 23:58:00 00:02:03 41° 287° (WNW) 00:06:01 435.000
VELOX 1 26 Jul 00:26:45 00:30:28 27° 70° (ENE) 00:34:13 145.980
PRISM 26 Jul 00:33:29 00:36:21 18° 292° (WNW) 00:39:13 437.425
LO-87 26 Jul 00:52:52 00:54:37 13° 267° (W) 00:56:23 145.935 - 145.965
DUCHIFAT 1 26 Jul 00:59:45 01:03:39 38° 98° (E) 01:07:31 145.980
JUGNU 26 Jul 01:01:49 01:05:13 16° 178° (S) 01:08:38 437.505
POLYITAN 1 26 Jul 01:03:23 01:07:31 54° 101° (E) 01:11:35 437.675
SPROUT 26 Jul 01:10:32 01:14:50 79° 258° (WSW) 01:19:08 437.525
UKube-1 26 Jul 01:11:31 01:14:15 17° 66° (ENE) 01:16:58 .
QB50P2 26 Jul 01:16:25 01:20:39 89° 95° (E) 01:24:50 145.880/145.840
O/OREOS (USA 219) 26 Jul 01:18:14 01:22:14 31° 64° (ENE) 01:26:14 437.305
RS-15 26 Jul 01:21:28 01:33:30 65° 55° (NE) 01:44:49 29.354- 29.394
ESTCUBE 1 26 Jul 01:22:52 01:25:20 15° 267° (W) 01:27:49 437.505/2401.250
M-CUBED/EXP-1 PRIME 26 Jul 01:24:51 01:27:47 17° 298° (WNW) 01:30:44 437.505
BUGSAT 1 26 Jul 01:25:49 01:28:48 19° 95° (E) 01:31:44 437.445
AIST 2D 26 Jul 01:27:10 01:29:53 22° 288° (WNW) 01:32:37 435.315
NANOSAT C BR1 26 Jul 01:27:37 01:31:49 83° 285° (WNW) 01:35:59 145.865
EO-79 26 Jul 01:28:11 01:32:23 73° 284° (WNW) 01:36:32 145.935-145.965
50 SAT 26 Jul 01:45:35 01:48:58 81° 258° (WSW) 01:52:23 437.505
VELOX 1 26 Jul 02:03:18 02:06:50 23° 264° (W) 02:10:25 145.980
DX 1 26 Jul 02:04:47 02:09:07 77° 257° (WSW) 02:13:31 434.975-435.025
SRMSAT 26 Jul 02:06:00 02:07:55 12° 169° (SSE) 02:09:50 437.500
Oscar 19 26 Jul 02:33:54 02:38:53 47° 100° (E) 02:43:51 437.125/150
DUCHIFAT 1 26 Jul 02:36:31 02:38:58 15° 293° (WNW) 02:41:25 145.980
POLYITAN 1 26 Jul 02:41:31 02:42:46 11° 295° (WNW) 02:44:01 437.675
ISS 26 Jul 02:42:06 02:43:55 14° 25° (NNE) 02:45:44 437.550
UKube-1 26 Jul 02:45:55 02:49:55 38° 261° (W) 02:53:58 .
JUGNU 26 Jul 02:50:41 02:53:26 13° 189° (S) 02:56:11 437.505
Tancredo 1 26 Jul 02:51:09 02:53:51 32° 35° (NE) 02:56:34 437.200
O/OREOS (USA 219) 26 Jul 02:58:03 03:01:23 21° 259° (W) 03:04:45 437.305
BUGSAT 1 26 Jul 03:00:41 03:04:07 27° 290° (WNW) 03:07:32 437.445
BEESAT 26 Jul 03:04:09 03:08:16 29° 69° (ENE) 03:12:22 436.000
Gurwin Techsat 1B 26 Jul 03:07:13 03:12:30 63° 101° (ESE) 03:17:45 435.225
ITUPSAT 1 26 Jul 03:17:38 03:22:05 40° 72° (ENE) 03:26:33 437.325
nSIGHT-1 26 Jul 03:22:45 03:25:34 27° 33° (NNE) 03:28:23 .
RS-15 26 Jul 03:35:02 03:45:02 34° 256° (WSW) 03:54:39 29.354- 29.394
SRMSAT 26 Jul 03:52:55 03:56:17 15° 179° (S) 03:59:37 437.500
MOZHAYETS 4 26 Jul 03:55:55 04:00:29 75° 75° (ENE) 04:05:03
PCSat 26 Jul 04:05:07 04:07:12 12° 102° (ESE) 04:09:17 145.827
Oscar 19 26 Jul 04:14:15 04:17:48 19° 295° (WNW) 04:21:22 437.125/150
ISS 26 Jul 04:17:30 04:20:46 85° 221° (SW) 04:24:01 437.550
Tancredo 1 26 Jul 04:27:04 04:29:03 17° 230° (SW) 04:31:03 437.200
ITAMSAT 1 26 Jul 04:27:37 04:32:30 40° 99° (E) 04:37:20 435.822/435.867
AO-7 26 Jul 04:29:00 04:36:59 47° 101° (E) 04:44:53 .
KKS-1 26 Jul 04:31:27 04:34:26 18° 67° (ENE) 04:37:26 437.445
CUBESAT XI-V 26 Jul 04:33:37 04:37:43 34° 71° (ENE) 04:41:51 437.345
BEESAT 26 Jul 04:42:03 04:45:58 25° 264° (W) 04:49:54 436.000
Gurwin Techsat 1B 26 Jul 04:48:53 04:51:52 15° 297° (WNW) 04:54:50 435.225
ITUPSAT 1 26 Jul 04:56:43 05:00:01 18° 266° (W) 05:03:20 437.325
STARS 26 Jul 04:58:59 05:01:23 14° 65° (ENE) 05:03:46 437.465
nSIGHT-1 26 Jul 04:59:10 05:01:55 26° 229° (SW) 05:04:39 .
SO-50 26 Jul 05:23:52 05:25:03 11° 107° (ESE) 05:26:14 436.795
SRMSAT 26 Jul 05:42:04 05:44:38 13° 189° (S) 05:47:12 437.500
PCSat 26 Jul 05:44:28 05:49:52 75° 297° (WNW) 05:55:19 145.827
KKS-1 26 Jul 06:06:31 06:10:40 38° 261° (W) 06:14:51 437.445
ITAMSAT 1 26 Jul 06:07:43 06:11:39 22° 294° (WNW) 06:15:34 435.822/435.867
YUBILEINY 26 Jul 06:11:40 06:20:04 48° 77° (ENE) 06:28:22 435.215
CUBESAT XI-V 26 Jul 06:11:47 06:15:08 20° 266° (W) 06:18:30 437.345
DOVE 4 26 Jul 06:16:44 06:21:27 33° 96° (E) 06:25:57 437.250
AO-7 26 Jul 06:22:05 06:29:29 37° 298° (WNW) 06:36:52 .
CUTE-I 26 Jul 06:25:01 06:27:00 12° 91° (E) 06:28:58 437.470
STARS 26 Jul 06:33:00 06:37:16 47° 260° (W) 06:41:34 437.465
XW-2C 26 Jul 06:39:16 06:41:40 16° 94° (E) 06:44:03 145.795 - 145.815
NUDT-PHONESAT 26 Jul 06:43:17 06:44:52 12° 93° (E) 06:46:27 437.300
KAITUO 1B 26 Jul 06:58:12 07:01:04 21° 95° (E) 07:03:55 145.475/437.950
SO-50 26 Jul 07:00:25 07:04:55 66° 301° (WNW) 07:09:25 436.795
LilacSat-2 26 Jul 07:03:01 07:06:31 35° 98° (E) 07:10:00 437.200
XW-2F 26 Jul 07:15:11 07:18:47 44° 99° (E) 07:22:24 145.980 - 146.000
PCSat 26 Jul 07:32:32 07:34:11 11° 316° (NW) 07:35:51 145.827
XW-2D 26 Jul 07:44:41 07:48:25 62° 283° (WNW) 07:52:09 145.860 - 145.880
STRAND 1 26 Jul 07:48:15 07:53:18 59° 73° (ENE) 07:58:22 437.568
DOVE 4 26 Jul 07:54:37 07:58:54 26° 292° (WNW) 08:03:03 437.250
XW-2B 26 Jul 07:54:52 07:58:30 47° 285° (WNW) 08:02:08 145.730 - 145.750
CUTE-I 26 Jul 08:02:10 08:07:31 72° 286° (WNW) 08:12:49 437.470
YUBILEINY 26 Jul 08:09:01 08:16:28 33° 275° (W) 08:23:53 435.215
HO-68 26 Jul 08:12:30 08:19:12 42° 99° (E) 08:25:53 435.675
XW-2C 26 Jul 08:12:37 08:15:51 27° 288° (WNW) 08:19:05 145.795 - 145.815
FO-29 26 Jul 08:15:05 08:17:56 12° 55° (NE) 08:20:48 435.910
NUDT-PHONESAT 26 Jul 08:15:31 08:18:51 33° 287° (WNW) 08:22:11 437.300
KAITUO 1B 26 Jul 08:32:05 08:34:56 21° 289° (WNW) 08:37:47 145.475/437.950
LilacSat-2 26 Jul 08:38:33 08:40:27 14° 292° (WNW) 08:42:22 437.200
CUBEBUG 2 26 Jul 08:50:41 08:54:46 47° 99° (E) 08:58:45 437.445
XW-2F 26 Jul 08:51:41 08:52:29 11° 293° (WNW) 08:53:16 145.980 - 146.000
CUTE 1.7 + AOD 2 26 Jul 08:58:28 09:02:40 62° 285° (WNW) 09:06:52 437.475
AO-73 26 Jul 09:01:29 09:04:04 16° 93° (E) 09:06:38 145.935
SEEDS 26 Jul 09:08:18 09:12:31 78° 285° (WNW) 09:16:45 437.485
XW-2A 26 Jul 09:14:14 09:17:29 54° 284° (WNW) 09:20:44 145.665 - 145.685
TIGRISAT 26 Jul 09:20:29 09:21:40 11° 64° (ENE) 09:22:50 435.000
STRAND 1 26 Jul 09:30:09 09:32:49 14° 268° (W) 09:35:29 437.568
PRISM 26 Jul 09:45:13 09:47:50 17° 67° (ENE) 09:50:28 437.425
UWE-3 26 Jul 09:46:05 09:50:11 63° 285° (WNW) 09:54:16 435.000/436.395/437.385
AAUSAT CUBESAT 2 26 Jul 09:48:12 09:52:19 59° 284° (WNW) 09:56:25 437.432
FO-29 26 Jul 09:53:56 10:01:25 65° 72° (ENE) 10:09:12 435.910
ZACube-1 26 Jul 09:56:52 10:01:02 90° 114° (ESE) 10:05:09 437.345
HO-68 26 Jul 10:00:28 10:06:43 34° 295° (WNW) 10:12:57 435.675
UNISAT 6 26 Jul 10:09:33 10:13:54 41° 73° (ENE) 10:18:13 437.425
Oscar 11 26 Jul 10:20:40 10:24:58 73° 283° (WNW) 10:29:16 .
CUBEBUG 2 26 Jul 10:29:10 10:30:54 12° 295° (WNW) 10:32:38 437.445
M-CUBED/EXP-1 PRIME 26 Jul 10:33:08 10:36:26 34° 67° (ENE) 10:40:00 437.505
AO-73 26 Jul 10:36:40 10:40:22 33° 288° (WNW) 10:44:05 145.935
DELFI C3 26 Jul 10:39:00 10:42:48 40° 98° (E) 10:46:34 145.870
NO-84 26 Jul 10:43:15 10:45:59 38° 129° (SE) 10:48:54 435.350 FM
EO-88 26 Jul 10:47:11 10:50:22 28° 97° (E) 10:53:34 145.990 - 145.960
TIGRISAT 26 Jul 10:53:06 10:57:45 69° 259° (W) 11:02:19 435.000
PRISM 26 Jul 11:19:06 11:22:48 34° 262° (W) 11:26:34 437.425
FO-29 26 Jul 11:40:58 11:46:50 24° 269° (W) 11:52:55 435.910
ESTCUBE 1 26 Jul 11:41:18 11:42:41 11° 91° (E) 11:44:03 437.505/2401.250
UNISAT 6 26 Jul 11:47:46 11:50:44 17° 267° (W) 11:53:40 437.425
DUCHIFAT 1 26 Jul 11:49:25 11:52:35 21° 69° (ENE) 11:55:46 145.980
POLYITAN 1 26 Jul 11:53:25 11:57:06 29° 71° (ENE) 12:00:49 437.675
AIST 2D 26 Jul 11:57:54 12:01:22 82° 77° (ENE) 12:04:51 435.315
QB50P2 26 Jul 12:06:06 12:10:11 46° 74° (ENE) 12:14:16 145.880/145.840
M-CUBED/EXP-1 PRIME 26 Jul 12:09:12 12:11:03 13° 264° (W) 12:12:58 437.505
